Lapse_Rate
5.9 4.5 3.9 2.7 2.7 4.3 3.8 4.8 4.7 3.9 3.8 4.0 3.5 3.9 4.4 4.4 5.9 5.3 5.3 4.6 5.8 5.1 4.7 3.9 3.6 3.3 3.6 2.8 3.1 3.8 4.4 4.1 4.0 4.4 4.4 4.4 4.3 4.9 5.3 4.3 3.8 4.3 4.5
6.0 4.8 3.8 3.6 4.0 3.2 3.1 3.9 5.1 4.5 5.3 4.1 3.1 3.8 4.2 4.4 5.2 5.3 5.0 5.7 5.8 5.3 5.0 4.0 3.5 3.7 3.3 3.2 3.4 4.1 3.7 4.3 3.8 4.6 4.0 4.9 4.7 4.2 3.7 3.3 3.3 3.3 4.0
6.2 6.0 5.7 5.0 4.0 1.7 3.0 4.1 4.5 5.4 5.5 5.6 4.6 4.7 4.7 4.5 4.8 4.8 4.8 4.8 5.6 5.1 5.2 4.3 3.4 3.0 3.1 3.1 3.2 3.7 4.0 4.0 3.4 3.6 4.4 4.1 4.1 3.3 3.2 3.5 3.7 3.5 2.7
6.2 6.0 5.4 5.1 4.8 3.0 4.6 5.2 4.7 5.1 5.6 5.7 6.0 4.9 4.9 5.0 5.9 5.3 4.9 4.9 5.3 4.5 4.7 4.5 4.1 4.0 3.6 3.5 3.2 3.0 3.3 3.7 3.6 3.0 3.1 3.7 3.5 4.1 5.1 3.7 3.4 2.7 2.8
4.9 6.4 5.9 4.9 5.3 4.4 4.7 4.2 4.6 5.5 5.5 5.6 5.2 5.4 5.4 5.2 4.5 5.0 4.5 5.3 4.7 4.6 4.8 4.7 4.3 4.5 3.8 3.2 3.1 2.9 3.1 2.9 3.0 3.1 3.0 3.6 3.7 4.0 4.2 5.1 4.8 3.6 2.3
5.1 4.7 5.4 4.7 4.5 4.4 4.4 4.5 3.9 5.4 5.0 5.3 4.9 5.2 4.7 4.7 5.4 5.1 5.1 5.4 4.9 4.5 4.5 4.5 4.3 3.9 2.9 2.8 3.0 3.2 3.3 3.2 3.2 3.0 2.5 2.7 3.6 4.6 4.8 4.1 3.7 4.7 3.3
4.7 4.9 5.2 5.4 4.8 4.7 4.6 4.5 4.8 4.8 4.8 5.0 5.9 5.0 4.7 4.1 4.5 5.5 4.5 4.8 4.4 4.7 4.5 4.2 3.8 3.6 3.2 2.9 2.4 3.1 2.5 2.9 2.3 2.7 2.7 2.9 2.2 2.9 4.8 5.0 4.2 4.3 3.6
5.9 5.7 5.6 5.2 4.4 4.7 4.6 4.8 4.6 5.1 4.8 4.9 4.4 4.8 4.7 4.7 4.4 5.1 3.6 3.9 3.5 3.4 2.6 3.6 3.8 3.0 2.6 2.5 2.2 2.5 2.6 2.7 2.6 3.0 3.0 4.2 3.9 4.0 3.7 4.6 4.3 4.4 4.1
5.1 5.4 5.4 5.4 5.2 4.7 4.9 5.0 4.7 5.1 5.0 5.2 5.5 5.0 4.8 5.4 5.0 4.9 4.4 3.6 2.3 1.8 1.6 2.0 2.3 2.1 2.1 2.5 2.9 3.0 3.1 3.2 3.1 3.8 3.7 3.8 3.1 3.3 3.3 3.6 3.9 4.0 3.9
6.1 5.8 4.6 5.2 4.8 4.6 5.0 5.3 5.1 5.0 5.1 4.7 5.7 5.0 4.8 5.0 4.8 4.8 4.2 3.7 3.1 2.7 2.3 2.2 2.8 2.7 3.1 3.2 3.2 3.3 3.7 4.1 4.2 3.8 3.2 2.9 1.3 2.9 3.0 3.1 3.2 3.3 3.2
5.6 5.5 5.1 4.4 4.5 4.0 4.2 4.8 5.4 5.2 4.9 5.1 5.0 5.2 4.6 4.1 4.2 4.4 4.6 4.1 3.8 3.3 3.0 3.2 3.6 3.1 3.0 3.3 3.6 2.8 3.6 4.3 3.8 3.2 3.6 2.1 1.9 2.6 2.6 2.2 1.8 1.3 1.2
5.5 5.3 5.0 4.3 3.5 3.9 4.1 4.3 5.2 4.8 4.8 5.3 5.1 4.8 4.5 4.5 3.9 4.2 4.6 4.0 4.6 4.2 4.0 3.9 4.0 3.7 3.2 3.1 3.2 3.3 3.6 3.7 4.0 3.7 2.5 2.3 1.8 2.1 1.6 1.5 1.2 1.0 0.8
5.3 5.0 5.3 4.7 4.0 3.6 3.2 3.3 3.2 3.5 4.0 4.8 5.1 5.0 4.4 4.8 5.0 4.9 4.8 5.2 5.1 4.7 4.9 4.6 4.1 3.5 3.5 3.3 3.2 3.7 2.6 2.3 3.6 2.6 2.4 2.2 2.1 1.4 1.0 0.7 0.6 0.4 0.6
5.2 4.9 4.4 4.6 4.5 3.8 3.1 2.8 2.8 2.5 2.7 3.2 4.7 5.1 4.9 4.7 4.4 4.2 3.9 3.9 4.1 4.3 4.7 4.0 4.1 2.8 2.1 2.3 2.0 1.9 1.6 1.7 2.2 2.1 2.1 2.2 2.1 1.4 0.3 0.1 -0.4 -0.2 -0.2
5.2 4.7 3.9 3.3 3.3 3.6 3.3 2.9 2.6 2.6 2.5 2.4 2.5 2.9 3.8 3.8 3.3 2.6 2.0 2.0 1.8 1.7 1.8 1.8 2.0 1.9 1.4 1.2 0.9 0.9 1.8 1.3 1.3 0.4 0.6 0.7 0.8 0.4 0.2 -0.0 -0.8 -0.4 -0.3
5.1 4.8 4.2 3.3 2.8 1.3 1.9 2.6 2.7 2.8 2.7 2.3 2.1 2.4 2.8 2.3 1.9 1.0 0.9 1.4 1.0 1.1 1.8 1.9 1.0 0.9 0.9 1.5 1.4 1.6 1.3 0.9 0.5 -0.1 -0.4 -0.2 0.4 1.0 1.1 0.4 0.4 0.2 -0.0
5.0 4.1 3.4 2.9 2.2 1.5 1.4 1.1 1.4 2.0 2.2 2.4 2.3 2.1 2.1 2.0 1.6 1.0 0.0 -0.2 0.7 0.6 0.6 0.2 0.5 1.1 1.8 1.4 1.6 1.1 0.9 0.7 0.4 0.2 -0.2 -0.4 -0.6 -0.7 -1.2 0.4 0.2 0.2 0.5
4.5 3.8 2.9 2.6 1.9 1.1 0.7 0.4 0.8 1.0 1.3 1.5 2.0 2.0 1.9 1.4 0.9 0.6 0.3 0.0 -0.5 -0.7 -0.8 -0.6 -0.0 1.0 1.8 1.9 1.5 1.0 0.1 0.5 0.7 0.5 0.0 -0.4 -1.2 -1.7 -1.7 -2.4 -2.9 -2.7 -2.0
4.7 4.0 2.9 2.6 1.6 0.8 0.1 0.4 0.6 0.2 0.3 0.3 0.4 0.8 1.3 1.2 0.7 0.5 0.4 -0.4 -1.6 -1.6 -0.5 -0.3 -0.4 0.8 1.3 1.5 1.3 0.8 1.2 1.3 0.6 0.5 -0.5 -1.1 -1.1 0.1 -0.3 -2.4 -2.6 -2.1 -1.1
4.5 4.1 3.5 3.1 1.8 0.7 0.3 0.4 0.1 -0.2 -0.2 -0.2 -0.2 -0.2 0.4 0.7 0.6 0.2 -0.5 -1.3 -1.5 -1.4 -1.9 0.3 0.7 1.6 1.3 1.5 1.2 1.2 1.4 0.7 -0.2 -0.5 -0.5 0.5 -0.3 1.1 0.4 -2.1 -2.1 -1.7 -0.8
5.6 4.3 3.4 2.8 2.3 1.5 1.1 0.8 0.1 -0.1 -0.2 -0.1 0.0 0.3 0.2 0.2 0.4 0.0 -0.7 -0.9 -1.2 -1.1 -0.8 0.0 0.9 1.5 1.3 1.3 1.9 1.7 0.7 0.3 -0.4 -0.6 -1.0 -0.9 1.1 1.6 1.4 -0.4 -1.4 -0.1 -0.2
5.6 5.1 3.4 2.8 2.4 1.9 1.8 1.3 0.8 0.3 0.1 0.2 0.3 0.3 0.4 0.7 1.0 0.8 0.3 -0.0 -0.0 0.0 0.0 0.3 0.1 -0.1 0.2 1.5 2.4 2.3 1.5 1.2 0.2 -0.2 -0.3 -0.1 2.0 2.2 2.1 1.2 2.0 3.2 2.0
4.6 4.5 3.9 3.4 2.3 1.7 1.3 1.7 1.3 1.0 1.1 1.4 1.5 1.3 1.2 1.4 1.0 1.0 0.9 0.9 0.9 0.9 0.9 0.9 0.8 0.3 -0.1 0.4 2.5 3.1 2.9 2.4 0.6 0.3 1.0 1.4 2.5 2.6 2.7 3.4 3.6 3.9 0.0
4.6 4.7 4.5 3.6 2.8 1.8 1.7 1.1 0.9 1.1 1.8 1.8 1.9 2.4 3.3 3.9 3.7 4.1 3.2 2.8 2.4 2.7 2.4 1.8 1.7 1.0 0.8 0.8 1.8 2.6 2.6 2.6 1.7 1.8 1.8 2.3 2.2 2.3 1.7 2.2 2.7 0.2 0.1
4.3 4.6 4.5 4.0 2.6 2.0 1.7 1.0 1.1 1.3 2.0 2.0 2.0 3.7 5.0 4.2 4.3 4.4 4.0 4.0 3.8 4.0 3.9 3.4 3.2 2.7 2.8 2.0 2.5 3.1 2.8 1.8 1.6 1.2 0.9 0.4 -0.1 0.1 -0.4 0.1 0.4 0.2 0.4
4.4 4.2 3.8 4.0 3.9 3.3 2.1 1.7 1.4 1.4 1.9 2.4 2.8 3.1 3.8 3.6 3.7 3.7 3.6 3.6 3.7 4.0 3.9 3.9 3.6 2.8 3.9 4.0 3.6 3.9 4.2 4.1 3.7 1.5 1.6 0.9 0.7 0.8 0.9 1.1 0.8 0.6 1.6
Wind_Speed
8 15 10 13 12 7 8 7 4 3 5 7 11 8 10 7 9 9 17 20 19 19 16 9 8 10 8 6 6 3 4 1 3 2 2 2 2 1 2 4 6 6 6
9 14 13 8 10 12 8 7 9 6 7 7 7 9 8 5 9 9 12 17 18 17 14 9 8 8 5 6 6 5 3 2 2 3 2 1 3 3 2 1 1 5 7
15 14 13 12 12 13 10 11 12 10 10 12 8 8 8 6 4 5 7 8 15 14 13 11 7 7 6 6 6 5 6 3 3 3 3 2 3 1 2 1 2 3 2
12 12 12 10 5 9 5 5 12 12 10 12 12 18 12 13 7 8 8 8 13 10 12 11 10 8 6 7 5 5 4 4 4 2 3 3 3 3 0 1 1 3 4
14 11 9 11 7 10 6 5 5 10 12 13 10 9 12 10 9 6 8 9 7 11 11 11 9 9 7 6 9 7 8 4 5 4 3 2 2 2 1 3 3 1 2
5 11 8 10 8 4 3 3 3 13 11 15 14 13 10 6 9 11 10 8 7 7 9 9 7 7 6 8 7 5 7 6 4 4 4 5 4 2 2 1 3 3 1
7 8 10 7 8 5 3 2 3 6 10 12 16 15 13 10 5 10 10 10 7 6 9 8 8 6 5 6 5 5 5 5 4 5 5 5 8 7 3 3 2 2 1
10 7 4 4 6 4 3 4 2 6 9 10 8 10 10 7 6 4 2 10 10 10 9 8 7 7 7 6 5 4 4 4 3 5 4 3 3 5 5 4 4 1 2
10 8 7 3 6 5 5 3 2 4 3 7 7 9 7 8 8 8 6 3 4 4 6 5 6 4 5 7 6 4 5 4 4 6 6 5 3 5 5 4 3 4 4
14 10 6 5 3 3 2 3 5 4 2 3 7 5 5 5 7 6 7 4 4 5 6 3 5 5 4 5 6 4 4 6 5 5 7 5 4 3 3 3 3 2 4
13 11 8 8 6 5 1 2 5 6 6 5 3 3 3 3 5 5 4 4 3 5 4 6 7 7 7 6 7 6 6 6 5 4 8 7 5 5 4 3 3 3 3
12 11 11 11 10 9 9 6 2 7 9 9 9 7 4 3 3 5 5 6 9 7 8 10 10 9 7 8 8 7 7 7 8 7 6 6 5 6 5 3 4 4 2
14 13 12 12 11 11 10 9 8 6 0 9 9 8 5 2 5 6 8 10 10 12 13 11 9 9 9 9 8 9 8 7 8 9 8 8 9 6 4 4 4 3 3
10 11 13 12 11 10 9 8 8 7 5 5 4 6 6 6 3 4 1 2 5 9 11 11 10 8 7 7 7 6 6 6 5 5 6 7 7 7 6 5 6 5 4
12 11 10 10 10 10 10 9 8 7 6 6 8 6 3 4 7 5 4 4 3 1 2 4 5 5 6 5 8 7 6 7 6 5 4 4 5 6 7 5 5 6 4
8 9 10 9 11 9 9 8 7 6 6 6 6 5 4 4 1 5 6 5 4 4 3 4 4 5 4 9 9 9 8 8 7 6 5 5 8 8 9 9 7 6 5
7 8 7 6 6 8 8 7 6 6 7 6 5 5 4 3 1 1 6 5 4 3 3 4 4 5 4 10 12 12 7 7 7 8 7 5 4 7 7 10 10 7 6
6 6 6 6 6 6 8 7 7 7 6 6 5 4 3 2 1 1 4 3 2 3 3 4 4 4 3 10 12 11 6 5 6 7 7 7 6 6 7 6 6 5 4
3 4 5 4 6 6 7 6 7 7 7 7 6 6 3 1 2 2 2 2 3 1 2 3 5 5 4 9 11 9 5 6 6 6 6 7 6 11 13 7 6 4 2
2 4 4 3 6 7 6 6 6 6 7 8 8 6 5 4 4 3 4 3 2 3 2 3 4 5 4 8 11 8 5 6 4 4 5 11 8 13 13 6 6 6 5
3 2 3 3 3 5 6 7 6 6 6 6 6 6 6 6 5 3 2 2 2 3 3 4 3 4 5 7 12 12 5 5 5 4 4 3 12 12 13 10 5 5 6
3 3 3 3 3 4 3 4 6 7 7 7 7 7 6 4 3 3 2 1 1 3 3 3 3 3 3 7 10 11 7 9 6 5 3 4 11 11 11 9 10 10 8
4 1 1 2 3 3 3 4 5 5 6 6 6 6 5 4 2 1 2 1 1 3 3 3 3 3 3 3 10 12 11 12 5 5 8 11 11 12 10 11 11 10 4
4 2 1 2 3 3 3 3 5 5 4 5 6 5 4 3 2 2 2 3 3 3 3 3 4 3 3 4 5 7 7 11 7 10 7 9 9 8 7 5 6 4 4
4 2 2 3 3 2 3 4 5 5 5 4 4 5 4 5 4 3 3 3 4 5 5 6 5 4 6 8 9 9 8 7 8 8 4 3 3 4 3 3 4 4 4
3 3 3 2 1 1 2 2 3 4 4 4 3 3 3 3 3 4 4 3 5 7 12 11 7 5 12 10 17 19 18 17 20 4 5 6 6 7 6 5 4 4 7
Wind_Direction
166 154 147 129 133 152 146 207 248 131 142 173 154 164 165 163 170 168 163 164 172 170 172 173 172 174 177 171 166 153 164 155 143 97 53 23 5 264 99 124 145 130 142
114 111 127 134 162 161 148 166 203 209 188 178 178 161 168 164 162 160 159 159 160 165 167 166 171 172 165 169 167 153 139 132 131 135 100 41 339 350 43 89 100 153 146
155 146 146 160 181 139 140 190 194 204 197 172 157 143 145 129 138 152 147 157 161 163 165 165 167 174 167 178 172 171 156 143 76 68 132 105 214 331 7 94 139 174 133
142 148 163 159 157 121 165 164 190 190 189 174 163 161 164 166 172 164 167 163 165 166 168 171 174 180 173 171 167 151 151 138 141 93 62 45 132 163 39 336 212 185 159
133 146 152 147 136 130 153 167 195 203 191 176 168 166 159 161 159 167 178 168 172 174 177 173 171 179 178 172 161 158 161 162 151 147 173 98 18 330 131 207 217 232 111
116 129 117 94 105 120 150 277 182 191 194 185 165 166 162 140 168 175 175 175 177 182 182 176 173 166 174 177 166 156 165 168 163 166 198 152 152 222 229 230 239 218 135
88 91 98 133 122 145 186 230 322 268 154 161 170 164 168 172 205 188 178 168 173 181 184 168 166 168 159 164 149 164 187 185 164 173 198 220 180 165 193 210 177 183 163
36 74 40 76 112 144 189 187 83 351 118 134 117 158 163 173 187 218 204 183 184 187 176 164 172 193 186 174 154 156 158 173 194 202 205 240 222 195 162 194 155 200 180
37 25 2 47 178 171 208 151 81 67 33 145 144 135 134 182 174 184 201 196 166 166 135 168 192 160 156 155 155 174 179 199 200 227 214 211 186 187 171 191 164 146 187
37 38 22 352 307 303 144 212 166 154 112 20 133 121 145 142 135 148 169 169 163 158 164 177 209 192 193 178 179 182 187 198 217 216 187 212 133 152 187 180 186 143 152
16 27 26 20 4 356 129 166 186 181 165 166 123 127 194 160 127 156 188 192 185 196 180 186 208 200 191 186 185 181 176 204 202 191 198 162 145 168 179 163 145 142 138
20 18 22 27 29 28 41 42 231 193 190 183 186 182 190 179 177 194 178 170 198 208 199 201 197 201 190 187 194 192 192 190 205 194 165 161 152 155 152 151 152 153 136
14 17 21 24 23 29 24 29 33 45 215 193 182 190 180 219 256 251 248 235 214 201 208 202 200 192 205 202 204 203 187 187 202 187 180 162 154 158 160 151 141 143 141
23 17 18 18 16 19 21 13 24 23 44 68 189 159 143 217 204 175 174 203 207 205 202 205 203 189 180 188 177 173 163 144 167 161 150 171 169 158 147 149 154 149 146
20 14 12 8 16 15 13 6 12 16 31 63 61 37 103 170 152 133 111 87 76 76 145 163 162 171 181 199 178 146 141 140 133 101 98 127 138 139 152 158 152 150 153
15 10 7 4 10 5 4 1 4 9 34 49 70 82 69 72 293 140 126 134 139 136 162 171 153 158 154 153 135 138 141 133 133 129 116 117 120 124 127 116 134 153 151
359 3 0 2 2 358 347 359 354 6 35 45 42 57 75 103 96 52 136 136 153 134 139 134 143 149 140 152 146 140 142 144 145 139 139 139 135 131 123 129 121 111 105
344 342 344 354 358 350 358 346 4 14 25 29 24 30 58 95 59 67 75 81 84 159 175 170 152 145 161 150 145 138 134 131 136 143 150 144 154 148 133 127 121 116 98
324 321 333 338 351 2 353 0 14 16 21 14 7 350 335 270 177 176 173 158 134 201 197 183 164 167 176 166 146 128 132 133 141 153 152 146 156 172 155 134 138 129 126
338 351 353 351 1 348 0 29 19 10 4 349 336 330 328 290 257 233 206 164 160 191 170 168 175 166 163 170 154 141 143 145 146 138 145 168 169 171 164 154 160 166 193
345 24 26 29 12 354 7 18 7 3 323 322 322 326 326 312 284 269 214 196 195 180 183 186 186 182 180 179 169 162 155 153 149 158 163 172 172 174 175 168 164 186 161
337 33 24 11 9 14 37 28 12 328 326 327 327 329 327 321 316 271 284 319 199 211 214 203 216 211 205 198 189 180 164 161 156 171 167 166 180 180 180 170 184 177 148
318 317 41 355 345 359 37 21 336 333 330 335 330 321 323 328 344 232 218 321 220 218 220 212 212 217 198 213 204 194 187 183 161 156 172 177 183 177 184 186 188 169 151
288 264 284 311 305 338 10 2 333 331 1 351 344 331 332 287 246 197 185 186 200 221 225 220 232 223 190 199 206 202 188 181 172 167 173 178 173 175 173 182 194 153 162
273 271 269 248 272 341 7 350 345 344 360 359 356 349 356 352 319 276 230 219 220 211 218 224 222 211 230 223 201 196 192 177 167 146 138 143 141 165 171 178 192 173 178
258 275 287 280 310 89 101 349 333 355 353 349 354 351 344 339 336 323 312 276 276 261 246 244 229 229 234 213 198 198 194 183 167 155 174 180 181 187 189 185 190 182 194